<?xml version="1.0" standalone="yes" ?><gpx version="1.1" creator="ALPINTOUREN.COM" xmlns="http://www.topografix.com/GPX/1/1" xmlns:xsi="http://www.w3.org/2001/XMLSchema-instance" xsi:schemaLocation="http://www.topografix.com/GPX/1/1 http://www.topografix.com/GPX/1/1/gpx.xsd"><metadata><name>GPX Track erstellt von ALPINTOUREN.COM</name><time>2009-01-01T01:00:00Z</time></metadata><trk><name>AlpinTouren.com GPX Track</name><number>1</number><trkseg><trkpt lat="47.444597119797535" lon="13.582439303463616"><ele>1134</ele><time>2009-01-01T01:00:00Z</time><type>Trackpoint</type></trkpt><trkpt lat="47.445206615393644" lon="13.583190321987786"><ele>1151</ele><time>2009-01-01T01:00:00Z</time><type>Trackpoint</type></trkpt><trkpt lat="47.44590317314185" lon="13.583726763790764"><ele>1137</ele><time>2009-01-01T01:00:00Z</time><type>Trackpoint</type></trkpt><trkpt lat="47.44686092498489" lon="13.584391951626458"><ele>1151</ele><time>2009-01-01T01:00:00Z</time><type>Trackpoint</type></trkpt><trkpt lat="47.44765903819953" lon="13.584971308773675"><ele>1161</ele><time>2009-01-01T01:00:00Z</time><type>Trackpoint</type></trkpt><trkpt lat="47.44828300918677" lon="13.58510005480639"><ele>1173</ele><time>2009-01-01T01:00:00Z</time><type>Trackpoint</type></trkpt><trkpt lat="47.4491536540079" lon="13.585164427822747"><ele>1182</ele><time>2009-01-01T01:00:00Z</time><type>Trackpoint</type></trkpt><trkpt lat="47.45025645009202" lon="13.58559358126513"><ele>1197</ele><time>2009-01-01T01:00:00Z</time><type>Trackpoint</type></trkpt><trkpt lat="47.451069021884" lon="13.586022734707512"><ele>1196</ele><time>2009-01-01T01:00:00Z</time><type>Trackpoint</type></trkpt><trkpt lat="47.452273346268186" lon="13.586130023068108"><ele>1227</ele><time>2009-01-01T01:00:00Z</time><type>Trackpoint</type></trkpt><trkpt lat="47.45331803905817" lon="13.585936904019036"><ele>1244</ele><time>2009-01-01T01:00:00Z</time><type>Trackpoint</type></trkpt><trkpt lat="47.453898414974084" lon="13.585958361691155"><ele>1255</ele><time>2009-01-01T01:00:00Z</time><type>Trackpoint</type></trkpt><trkpt lat="47.45436271109503" lon="13.586301684445061"><ele>1261</ele><time>2009-01-01T01:00:00Z</time><type>Trackpoint</type></trkpt><trkpt lat="47.45440623864619" lon="13.587245822018303"><ele>1287</ele><time>2009-01-01T01:00:00Z</time><type>Trackpoint</type></trkpt><trkpt lat="47.45459485761822" lon="13.588619113033928"><ele>1307</ele><time>2009-01-01T01:00:00Z</time><type>Trackpoint</type></trkpt><trkpt lat="47.45533481782134" lon="13.590378642147698"><ele>1348</ele><time>2009-01-01T01:00:00Z</time><type>Trackpoint</type></trkpt><trkpt lat="47.45585713640148" lon="13.592460036343255"><ele>1389</ele><time>2009-01-01T01:00:00Z</time><type>Trackpoint</type></trkpt><trkpt lat="47.45598771523584" lon="13.594391226833977"><ele>1408</ele><time>2009-01-01T01:00:00Z</time><type>Trackpoint</type></trkpt><trkpt lat="47.456292397921686" lon="13.59582889086596"><ele>1411</ele><time>2009-01-01T01:00:00Z</time><type>Trackpoint</type></trkpt><trkpt lat="47.45722094378963" lon="13.59707343584887"><ele>1424</ele><time>2009-01-01T01:00:00Z</time><type>Trackpoint</type></trkpt><trkpt lat="47.45800439161136" lon="13.598639845913567"><ele>1436</ele><time>2009-01-01T01:00:00Z</time><type>Trackpoint</type></trkpt><trkpt lat="47.45848315953352" lon="13.599347949093499"><ele>1439</ele><time>2009-01-01T01:00:00Z</time><type>Trackpoint</type></trkpt><trkpt lat="47.45922306502013" lon="13.600957274502434"><ele>1464</ele><time>2009-01-01T01:00:00Z</time><type>Trackpoint</type></trkpt><trkpt lat="47.46007902112199" lon="13.602738261288323"><ele>1497</ele><time>2009-01-01T01:00:00Z</time><type>Trackpoint</type></trkpt><trkpt lat="47.46034015749748" lon="13.603918433254876"><ele>1508</ele><time>2009-01-01T01:00:00Z</time><type>Trackpoint</type></trkpt><trkpt lat="47.46077538190766" lon="13.605098605221428"><ele>1532</ele><time>2009-01-01T01:00:00Z</time><type>Trackpoint</type></trkpt><trkpt lat="47.461471733469914" lon="13.606128573483147"><ele>1579</ele><time>2009-01-01T01:00:00Z</time><type>Trackpoint</type></trkpt><trkpt lat="47.4621680758088" lon="13.606836676663079"><ele>1620</ele><time>2009-01-01T01:00:00Z</time><type>Trackpoint</type></trkpt><trkpt lat="47.462574271247064" lon="13.607652068203606"><ele>1636</ele><time>2009-01-01T01:00:00Z</time><type>Trackpoint</type></trkpt><trkpt lat="47.462922436267604" lon="13.608360171383538"><ele>1657</ele><time>2009-01-01T01:00:00Z</time><type>Trackpoint</type></trkpt><trkpt lat="47.4635607328165" lon="13.608446002072014"><ele>1657</ele><time>2009-01-01T01:00:00Z</time><type>Trackpoint</type></trkpt><trkpt lat="47.464097476188414" lon="13.607888102596917"><ele>1668</ele><time>2009-01-01T01:00:00Z</time><type>Trackpoint</type></trkpt><trkpt lat="47.464576188626154" lon="13.605999827450432"><ele>1665</ele><time>2009-01-01T01:00:00Z</time><type>Trackpoint</type></trkpt><trkpt lat="47.46460520136106" lon="13.603896975582757"><ele>1700</ele><time>2009-01-01T01:00:00Z</time><type>Trackpoint</type></trkpt><trkpt lat="47.46493884666155" lon="13.601643920010247"><ele>1717</ele><time>2009-01-01T01:00:00Z</time><type>Trackpoint</type></trkpt><trkpt lat="47.46505489670447" lon="13.599626898831048"><ele>1727</ele><time>2009-01-01T01:00:00Z</time><type>Trackpoint</type></trkpt><trkpt lat="47.46499687171504" lon="13.597974658077874"><ele>1765</ele><time>2009-01-01T01:00:00Z</time><type>Trackpoint</type></trkpt><trkpt lat="47.46451816310831" lon="13.596451163357415"><ele>1833</ele><time>2009-01-01T01:00:00Z</time><type>Trackpoint</type></trkpt><trkpt lat="47.4640539566597" lon="13.596730113094964"><ele>1833</ele><time>2009-01-01T01:00:00Z</time><type>Trackpoint</type></trkpt><trkpt lat="47.4637348123484" lon="13.597009062832512"><ele>1819</ele><time>2009-01-01T01:00:00Z</time><type>Trackpoint</type></trkpt><trkpt lat="47.46335763930072" lon="13.597009062832512"><ele>1819</ele><time>2009-01-01T01:00:00Z</time><type>Trackpoint</type></trkpt></trkseg></trk></gpx>